Theta_e
317 318 318 318 316 317 321 322 324 324 323 321 318 320 319 317 318 317 318 317 318 318 316 317 319 327 324 320 324 324 327 333 333 332 336 333 330 330 327 328 330 331 332 329 327 331 333 332 329 326 328 327 327 329 329 327 324 322 320 318 317 316 317 316 315 315 314 314 310 314 325 328 330 331 331 333 330 329 324 317 312 310 315 320 322 324 325 325 324 320 313 311 311 310 311 310 313
317 318 317 316 316 319 322 322 329 330 323 318 317 320 317 316 317 319 322 319 321 320 318 318 319 326 322 320 323 321 326 329 324 327 332 331 331 328 327 328 329 331 331 327 325 328 331 330 330 329 328 328 328 329 328 327 324 322 319 318 316 315 316 317 315 315 315 315 313 314 323 326 329 330 331 332 331 330 325 318 311 310 315 319 322 324 324 322 319 319 317 313 312 311 310 311 311
316 317 316 316 319 320 323 323 327 328 322 319 323 322 316 317 320 322 320 318 321 320 320 320 320 323 321 322 323 322 326 325 323 329 332 332 329 327 328 328 330 331 330 329 326 326 329 329 331 330 328 328 327 328 327 326 325 322 320 318 316 315 316 317 316 315 315 315 315 316 322 325 328 330 331 331 331 329 327 322 313 309 313 317 321 323 321 321 320 321 319 315 313 313 312 312 311
316 316 316 318 321 323 330 331 327 327 322 320 324 322 322 323 322 320 316 318 322 320 319 319 322 322 322 326 325 323 324 324 325 330 332 331 327 326 327 327 331 331 330 330 328 327 328 329 330 329 327 327 326 326 326 326 325 323 320 318 316 315 317 318 317 315 315 315 315 316 322 327 329 329 329 330 330 328 328 325 316 309 310 315 319 320 319 321 322 322 320 319 316 315 314 312 312
315 316 316 319 322 324 329 326 322 323 319 321 322 319 327 328 321 317 315 321 322 318 318 320 324 323 323 325 323 323 325 326 328 330 331 329 328 327 326 328 331 330 331 330 329 329 328 330 330 328 326 324 324 324 326 326 326 325 321 318 316 315 317 319 319 317 315 315 316 316 321 326 328 328 330 330 329 328 328 327 320 311 309 315 319 320 323 323 324 323 323 324 321 319 317 314 314
315 316 317 320 319 319 323 317 318 323 319 322 323 320 326 323 317 315 316 320 319 317 317 320 324 324 324 324 323 323 326 329 329 330 330 329 328 327 326 328 330 331 331 330 329 329 328 329 329 327 325 323 323 324 326 326 327 326 322 318 317 315 317 320 320 318 316 315 315 316 319 324 326 328 329 329 329 328 328 328 321 311 308 313 319 322 324 324 323 323 323 325 325 323 320 317 317
315 317 318 322 318 317 326 323 324 326 316 315 318 321 321 316 314 316 316 317 317 316 316 319 322 323 325 324 325 325 327 330 328 330 331 330 329 327 327 327 329 330 330 330 329 328 328 327 328 329 326 323 323 324 325 325 326 326 323 319 317 316 316 319 321 320 317 316 315 314 317 321 325 326 327 328 328 327 327 327 321 312 309 312 318 321 323 323 322 321 321 321 322 323 322 320 320
317 320 319 325 323 321 327 323 324 324 313 310 313 318 317 314 315 315 316 315 316 316 317 320 320 321 323 322 325 325 326 328 328 331 331 330 329 328 327 327 329 329 330 329 328 328 327 327 328 329 327 324 323 324 324 324 324 325 325 321 317 316 315 318 321 322 319 317 315 314 313 316 319 321 322 324 324 323 324 325 320 312 308 310 313 316 319 321 321 321 320 318 317 320 322 321 322
317 321 319 323 324 325 327 318 317 318 315 315 313 315 315 315 316 315 316 315 315 316 318 321 318 318 321 321 324 323 323 327 329 332 332 330 330 329 328 327 328 328 329 329 329 328 327 327 328 329 327 325 323 325 325 323 323 324 326 322 318 317 315 317 320 322 322 319 316 315 313 311 312 314 316 317 318 319 322 323 318 311 308 308 309 311 316 321 322 320 318 317 315 316 319 321 321
317 320 318 323 327 322 320 316 317 318 316 315 313 315 315 315 316 314 315 314 314 316 319 320 316 317 320 321 322 321 321 325 328 332 332 332 330 329 328 327 328 328 328 328 329 328 328 327 328 329 327 324 324 327 326 322 322 323 325 323 319 318 317 316 318 321 322 321 318 316 315 312 310 310 310 311 312 314 317 320 317 310 307 308 309 312 317 321 322 319 317 316 316 317 318 320 321
319 319 318 326 328 318 318 319 320 324 319 314 314 315 316 316 315 313 314 314 314 315 317 318 317 318 320 321 322 321 321 323 328 331 332 333 331 330 329 328 328 328 328 328 328 328 329 328 327 328 327 325 325 327 326 321 321 321 322 322 321 321 318 316 317 320 322 322 320 317 315 314 311 308 308 308 308 309 311 317 316 309 307 307 309 314 317 320 321 319 317 316 317 317 319 320 321
317 320 331 334 325 319 323 322 320 329 327 321 318 315 316 315 315 314 313 314 314 315 316 318 317 319 321 320 322 321 320 322 327 331 331 333 332 331 330 328 328 329 328 328 328 329 329 328 328 326 326 327 325 327 326 321 322 321 320 322 323 323 320 317 317 319 322 322 322 320 317 316 314 310 308 306 307 307 307 313 312 308 307 307 312 316 317 318 319 317 316 316 316 317 318 320 321
317 321 334 327 319 321 322 320 319 325 327 323 317 314 316 315 314 314 314 314 314 316 316 317 318 318 320 320 319 319 319 321 326 331 330 332 333 332 331 329 329 329 329 328 327 328 328 328 328 326 325 325 325 326 325 322 322 322 321 321 322 323 321 319 317 318 320 322 322 321 319 316 316 314 310 307 306 306 307 308 308 307 307 309 315 317 318 318 318 317 316 315 315 316 318 319 321
318 321 328 322 316 321 321 319 319 320 323 323 315 313 316 315 314 314 314 315 314 316 316 316 318 317 318 318 318 317 317 320 324 329 330 332 335 332 331 331 331 331 330 329 328 328 327 328 328 327 326 325 325 324 325 323 322 322 322 322 322 323 323 321 319 318 318 319 320 321 320 317 316 316 314 311 307 306 306 306 307 306 308 313 317 318 318 318 317 317 315 314 313 314 316 318 320
318 318 328 327 317 317 318 318 320 322 324 321 315 313 316 315 314 314 314 316 315 315 315 316 318 318 317 318 318 315 315 318 322 328 329 331 335 334 332 331 332 332 330 329 329 329 328 327 327 327 327 326 325 325 325 324 323 322 322 323 322 323 324 323 321 320 318 318 319 319 319 318 316 317 317 315 311 308 306 306 306 306 311 316 318 318 319 319 318 316 315 314 312 312 313 315 318
320 318 326 328 317 316 315 315 318 322 321 315 313 314 315 315 314 314 314 315 315 314 315 317 318 318 317 317 317 314 314 316 319 326 328 330 334 335 333 332 332 332 331 330 330 331 330 329 327 328 327 327 327 326 325 325 324 323 323 323 323 323 324 324 322 321 320 317 318 318 318 318 317 316 317 318 316 311 307 306 306 308 314 318 318 318 319 319 318 317 315 313 311 311 311 312 314
317 322 328 325 319 319 316 317 318 321 322 313 310 314 314 315 313 314 315 314 315 314 315 316 317 318 316 316 317 315 313 315 317 322 326 328 332 335 334 333 332 332 332 331 331 332 332 331 329 328 328 328 328 326 326 326 325 324 323 323 323 323 323 324 324 322 321 319 317 317 317 317 317 317 317 318 319 315 310 307 308 311 316 319 318 318 319 320 319 319 317 314 311 310 310 311 312
320 330 330 322 323 323 321 321 316 316 321 313 310 313 314 315 313 313 315 314 314 314 314 315 316 317 316 316 317 316 313 314 316 318 322 324 328 333 334 333 333 332 332 331 332 333 333 332 331 330 330 329 329 327 326 326 326 325 323 322 323 324 323 324 324 323 322 321 319 317 317 317 317 317 317 318 319 318 314 309 310 313 317 319 319 319 319 320 320 320 319 316 312 310 310 311 311
321 329 326 328 332 321 316 317 312 312 316 312 311 312 313 315 313 313 315 314 313 315 315 314 315 316 316 316 317 317 314 314 314 315 318 319 321 327 330 331 331 331 331 331 332 333 333 333 333 332 331 331 329 327 327 326 326 326 325 323 322 323 324 324 324 324 323 322 320 318 317 317 318 317 317 318 319 320 317 313 312 314 317 319 320 319 319 320 320 320 321 319 314 310 310 310 311
316 321 325 333 329 315 312 313 312 313 313 311 311 311 312 313 313 314 315 313 312 314 315 314 315 316 316 317 317 317 315 314 314 315 316 316 317 320 322 325 326 327 328 330 331 332 332 332 333 333 333 332 331 328 326 327 326 327 327 325 323 323 324 324 324 324 324 323 322 319 318 317 317 318 317 317 318 320 320 317 315 315 317 319 320 320 320 320 320 321 321 321 317 311 309 310 310
315 319 327 324 315 314 314 313 313 312 312 313 312 312 312 313 314 314 313 314 314 314 314 315 315 315 315 316 317 316 315 314 315 315 316 316 316 317 317 319 320 322 325 328 330 330 330 331 332 333 334 333 332 329 327 327 327 328 328 327 325 323 323 324 324 324 324 324 323 321 319 318 317 318 318 318 318 319 320 320 318 316 316 319 320 321 321 321 320 321 322 322 320 313 309 309 310
315 315 317 313 310 315 314 312 313 312 312 313 311 312 313 313 313 313 313 317 317 315 314 315 315 315 315 315 316 316 315 314 314 315 316 315 315 316 316 317 319 321 323 325 325 325 326 328 331 332 333 333 333 331 329 329 329 329 330 330 328 326 324 324 324 324 324 324 324 323 321 319 318 318 318 319 318 318 319 320 320 318 316 317 319 320 321 321 321 321 322 322 321 316 310 309 310
317 314 310 311 311 313 313 312 313 312 312 312 311 313 313 312 313 313 313 315 316 315 315 315 315 315 315 315 315 315 315 314 314 314 315 315 314 314 315 316 317 318 320 321 321 321 321 324 328 330 331 332 333 333 331 330 330 330 331 331 330 329 327 325 325 325 324 325 324 324 323 322 320 319 319 319 319 318 318 319 320 320 317 317 318 320 320 321 321 321 322 322 322 319 311 308 310
318 317 311 311 312 312 313 313 312 311 312 313 313 314 312 313 314 312 312 314 315 314 315 314 315 315 314 315 315 315 315 315 315 314 314 315 314 314 315 316 316 317 318 318 318 318 317 319 323 327 329 331 332 333 332 332 331 331 331 331 331 330 329 328 327 326 325 325 325 325 324 323 322 321 320 319 319 318 318 318 320 321 320 318 318 319 320 320 321 321 321 322 322 321 313 308 309
316 317 311 311 312 312 313 312 312 312 312 313 313 313 312 312 313 311 313 315 315 314 314 314 315 315 314 315 315 315 315 315 314 314 314 314 315 315 316 317 317 317 317 316 317 317 316 316 319 323 326 328 330 331 332 332 332 332 332 332 331 331 331 330 329 327 326 326 325 325 325 324 324 323 322 321 320 319 318 318 318 320 321 320 319 319 320 320 320 320 321 322 322 322 316 309 309
313 313 311 311 312 312 312 312 312 312 312 313 313 313 312 312 312 313 315 315 315 314 314 314 315 315 315 314 314 314 314 315 314 314 314 314 315 315 316 317 317 316 316 316 316 316 315 316 316 319 322 326 328 330 330 331 331 332 331 331 331 331 331 331 330 329 328 327 326 325 325 325 324 324 324 323 321 320 319 318 318 318 320 321 321 320 320 320 320 320 320 322 322 322 318 311 308
312 312 312 312 312 312 313 313 313 313 313 313 315 314 312 311 313 316 316 314 315 315 315 314 314 315 315 315 314 314 314 314 315 314 314 314 314 314 315 315 316 316 315 315 315 315 315 315 315 316 319 322 325 328 328 329 330 331 331 331 331 331 331 331 331 331 330 329 328 326 325 325 324 323 324 325 323 321 320 319 319 319 319 320 321 321 321 320 320 320 320 322 322 321 319 313 308
312 312 313 312 311 312 313 313 313 313 313 312 314 314 312 312 314 316 314 314 315 315 315 315 315 316 315 315 314 314 315 314 315 315 315 314 314 314 314 315 315 315 315 315 315 315 316 315 315 316 317 319 322 325 326 327 328 329 330 330 331 331 330 330 331 332 332 331 329 328 326 326 324 323 323 325 325 323 322 321 320 321 320 321 321 321 321 321 320 320 321 321 322 321 319 314 309
312 313 315 315 315 315 312 312 312 312 314 312 312 314 314 315 316 316 314 314 315 314 315 315 315 315 315 315 315 315 315 315 315 315 315 315 315 314 314 315 315 315 315 315 315 315 316 315 315 316 316 317 318 321 324 325 326 328 329 329 330 331 331 331 330 331 332 332 331 330 328 327 326 324 323 324 325 325 324 323 322 322 322 322 322 322 322 322 321 321 321 321 322 321 319 316 311
314 313 315 318 319 317 311 310 313 313 313 312 311 314 319 320 314 313 314 314 314 314 315 315 315 315 315 315 315 315 315 315 315 315 316 316 315 315 314 314 315 315 315 315 315 315 315 315 315 315 315 315 316 318 322 324 325 326 328 328 328 329 331 331 330 331 332 332 332 331 330 328 327 326 324 323 325 326 326 325 324 324 324 324 323 323 322 322 322 321 321 321 322 322 320 317 313
316 311 317 322 316 317 315 309 312 313 313 312 311 313 321 322 313 311 313 313 313 314 315 315 315 315 315 315 315 315 315 315 315 315 315 316 316 316 315 315 314 315 315 315 315 315 315 315 315 315 315 315 315 315 318 321 323 324 326 325 325 328 330 331 331 331 331 331 332 332 331 330 329 327 325 324 324 326 327 326 326 325 325 325 324 324 323 322 322 321 321 321 321 322 321 319 315
321 312 319 321 312 320 320 309 309 314 313 311 312 316 320 320 312 311 314 313 314 314 315 315 315 315 315 315 315 315 315 315 315 315 316 315 316 316 315 315 315 315 315 315 315 315 315 315 315 315 315 315 315 315 315 317 320 323 325 325 324 325 327 330 331 331 330 330 330 330 330 330 329 328 327 326 324 325 326 327 327 327 326 326 325 324 323 323 322 322 321 321 321 321 322 320 317
323 315 320 320 315 320 319 311 308 310 313 312 312 316 321 319 312 312 314 314 314 314 315 315 315 315 315 315 315 315 316 316 316 316 316 316 315 316 316 315 315 315 315 315 315 315 315 314 315 315 315 315 315 315 315 315 316 319 322 325 325 324 324 325 327 329 330 329 329 329 328 328 329 328 328 327 326 326 327 328 328 327 327 327 326 325 324 323 323 322 322 322 321 321 321 321 319
320 317 319 319 317 317 317 317 310 308 313 315 314 315 320 320 313 313 314 313 313 314 315 316 315 316 315 316 316 316 316 316 316 316 316 316 316 316 316 316 316 316 316 315 315 315 315 315 315 315 315 315 315 315 315 315 316 317 319 321 323 323 322 324 327 327 327 329 329 328 329 329 327 327 329 328 326 327 327 327 327 327 328 328 327 326 325 324 323 323 323 323 322 322 321 321 320
319 318 318 316 316 314 317 320 312 310 314 315 317 316 318 320 313 312 314 313 312 313 314 315 315 316 316 316 316 316 317 316 317 317 316 316 316 316 316 316 316 316 316 316 316 316 316 315 315 315 315 315 315 315 316 316 317 319 321 323 323 324 323 325 327 325 325 327 327 329 333 330 324 324 328 328 326 326 325 325 325 325 326 327 327 327 326 325 324 324 324 323 322 322 322 321 320
319 320 321 322 322 318 318 319 311 309 315 317 318 318 317 320 316 313 314 313 311 312 313 314 315 316 316 316 316 316 316 317 317 316 317 316 316 316 316 316 316 316 317 316 316 316 316 316 316 316 316 315 315 316 316 317 318 320 323 326 328 328 328 329 327 324 326 328 328 330 331 325 323 326 328 327 327 327 326 324 324 324 324 324 326 326 326 326 326 325 325 323 322 322 322 321 320
317 319 322 323 322 320 317 316 311 307 314 318 318 319 318 318 316 312 312 312 310 310 312 314 315 316 316 316 315 316 315 315 316 315 315 315 315 315 314 315 316 316 316 316 316 316 317 316 316 317 316 316 316 316 316 316 318 320 322 325 326 327 329 331 329 325 324 325 325 326 325 322 326 330 330 329 328 326 326 326 325 324 324 324 325 325 325 326 326 325 324 323 322 321 322 322 321
318 319 320 318 318 319 314 313 313 309 312 318 317 320 318 317 317 312 309 312 311 311 312 314 315 315 315 316 315 315 315 315 315 315 315 314 315 314 314 314 315 316 316 316 316 316 316 317 316 317 317 316 316 316 317 316 317 318 319 321 323 324 325 326 328 327 324 320 319 323 327 328 329 330 332 331 329 326 325 327 328 325 325 325 325 326 325 324 325 324 324 324 323 321 321 321 321
323 319 318 319 318 318 315 312 314 312 313 319 320 320 318 318 318 313 309 311 313 313 313 313 314 315 315 315 315 315 315 315 315 314 315 315 315 314 314 315 314 315 316 316 316 316 316 317 317 317 317 317 316 316 316 316 317 317 318 320 321 324 324 323 325 326 326 324 324 328 332 333 331 329 330 331 331 330 325 325 328 328 327 327 326 327 326 325 324 324 324 325 324 323 320 319 320
322 320 320 320 317 318 317 314 314 313 312 316 320 318 316 316 318 316 310 308 310 311 313 313 313 314 314 314 315 315 315 315 315 314 315 314 315 314 314 314 314 315 315 315 316 316 317 317 317 317 317 317 317 316 316 316 317 318 320 322 322 324 325 325 325 325 326 326 328 331 331 332 333 331 330 328 328 329 326 325 329 330 328 328 328 327 327 326 324 323 323 323 324 324 322 321 321
317 323 328 325 321 320 318 315 315 315 313 314 316 316 321 325 325 326 315 307 308 310 310 312 313 314 314 315 315 316 316 316 315 315 315 315 315 315 315 314 314 314 315 315 316 316 316 317 317 317 317 317 317 317 317 317 318 319 320 322 324 325 326 326 327 326 325 324 324 325 324 323 328 332 332 330 329 329 327 325 328 330 329 329 329 329 329 328 325 324 323 322 324 324 323 323 321
315 322 328 328 328 324 319 317 318 320 316 312 311 314 329 335 330 329 322 315 315 310 306 310 313 314 312 314 314 314 316 316 316 316 315 316 315 315 315 315 315 314 315 315 315 316 316 317 317 317 317 317 317 317 317 317 317 318 320 321 322 324 324 324 324 323 323 323 322 321 319 317 321 326 328 328 329 329 326 323 324 326 328 329 330 330 329 327 327 326 324 323 323 324 323 322 321
317 317 319 324 328 325 322 319 317 319 315 309 311 315 323 327 322 322 323 322 324 316 309 310 313 314 312 313 314 314 314 315 315 316 316 316 316 316 315 315 315 315 315 316 316 316 316 317 316 317 317 317 317 317 317 318 318 318 319 320 320 321 321 320 320 320 320 321 321 321 320 318 320 325 328 326 325 324 324 326 327 327 328 329 329 329 328 328 327 325 324 324 323 323 322 322 322
319 315 316 323 327 326 326 323 321 321 315 314 319 319 315 318 316 317 318 321 323 321 318 314 311 313 313 313 314 314 314 314 314 314 316 317 317 316 316 316 316 316 316 316 316 317 316 317 317 317 317 317 317 317 317 317 318 318 318 319 319 319 319 319 320 321 321 321 322 321 321 321 321 324 327 326 327 327 326 325 326 326 325 325 325 325 324 324 323 322 323 324 322 321 322 322 323
319 312 314 320 323 326 329 330 328 319 312 318 324 314 313 322 321 317 314 316 318 320 321 316 310 312 313 313 314 314 314 314 313 314 316 318 318 318 317 317 317 317 317 317 317 317 317 317 317 317 317 317 317 317 317 318 318 318 318 318 318 318 319 320 321 321 322 321 321 321 321 322 321 322 322 322 325 328 328 327 326 326 326 326 326 326 324 324 322 320 321 323 321 321 322 322 322
314 308 313 317 319 324 326 328 326 316 313 324 324 313 312 320 324 321 314 314 319 321 321 314 308 312 315 314 314 313 315 314 314 316 317 318 318 318 318 318 318 317 317 317 318 318 318 318 318 318 318 318 317 318 317 317 318 317 317 317 317 318 318 319 320 320 320 320 320 320 320 320 321 321 322 321 322 324 325 327 327 328 328 327 326 325 325 324 322 319 321 323 323 322 322 321 320
309 313 319 318 321 325 326 327 321 314 319 326 320 314 312 313 323 325 314 315 319 318 321 318 311 313 316 316 315 314 315 316 316 317 318 319 319 318 318 318 318 318 317 318 318 318 318 318 318 318 318 318 317 318 317 317 317 317 316 316 316 317 317 318 318 318 319 319 319 318 318 319 319 319 320 321 322 322 322 323 323 325 325 323 322 322 321 321 320 320 322 323 322 322 322 321 319
311 322 323 317 321 323 325 328 320 316 325 321 313 312 311 311 323 327 319 317 316 314 319 321 314 313 316 317 317 316 316 317 318 318 318 318 318 317 318 318 318 318 317 318 318 317 318 317 318 318 317 317 317 317 317 317 316 316 316 316 316 316 316 316 317 316 317 317 317 317 317 317 317 317 318 318 319 319 320 320 320 321 321 322 322 321 321 322 322 323 322 320 320 320 321 321 319
316 321 321 319 321 318 322 327 320 320 322 314 311 313 312 312 317 319 318 318 315 309 310 314 312 312 316 317 317 317 318 318 318 318 318 318 318 317 318 318 318 318 317 318 318 318 317 317 317 317 317 317 317 317 316 316 316 316 316 316 316 316 316 316 316 316 316 316 316 316 315 316 315 315 315 315 315 316 316 317 317 317 318 319 321 321 321 321 322 323 322 321 321 320 320 320 320
316 316 319 321 321 316 319 321 315 316 318 311 310 313 315 316 314 313 316 313 311 309 307 310 311 312 315 315 317 318 318 318 318 318 317 317 318 317 317 318 317 318 317 317 318 317 317 317 317 317 317 317 316 316 316 316 316 316 316 316 316 316 316 316 316 316 316 315 315 315 315 315 315 315 314 314 314 314 314 314 314 314 315 315 318 320 322 322 322 322 322 321 322 322 321 320 320
315 316 315 317 324 323 321 320 319 319 319 313 310 314 321 322 314 314 313 308 308 310 311 312 312 313 315 314 316 318 318 318 317 317 318 317 317 317 317 317 317 317 317 317 317 317 317 317 317 317 316 316 316 316 316 316 316 316 316 316 316 316 316 316 316 316 316 316 315 315 315 315 315 314 314 314 314 313 313 313 313 313 313 313 314 316 318 319 320 320 320 320 320 321 320 320 320
315 313 313 314 322 324 317 313 316 317 316 315 313 316 324 320 314 313 309 307 308 308 309 313 313 313 314 314 316 316 318 319 317 317 317 317 317 317 317 317 317 317 317 317 317 317 317 317 316 317 316 316 316 316 316 316 316 316 316 316 316 316 316 316 316 316 316 316 315 315 315 315 315 314 314 314 314 313 313 313 313 312 312 312 312 313 313 314 315 316 317 318 318 318 318 318 319
315 313 317 318 316 321 317 308 309 310 312 315 314 317 320 314 313 315 312 312 314 311 310 310 311 314 313 314 316 315 317 318 317 317 317 317 317 317 317 317 317 317 317 317 317 317 317 317 316 317 316 317 317 316 317 316 316 316 316 316 316 316 316 316 316 316 316 315 315 315 315 315 315 315 314 314 314 313 313 313 313 312 312 312 312 312 311 311 311 311 312 313 314 315 316 317 317
318 318 319 314 310 317 319 313 316 315 314 317 315 314 317 314 314 318 316 314 317 319 316 309 309 314 314 314 315 314 315 315 316 317 317 317 317 316 317 317 317 317 317 317 317 316 317 317 317 317 316 317 317 316 317 316 317 316 316 316 316 316 316 316 316 316 316 315 315 315 315 315 315 315 314 314 314 314 314 313 313 312 312 312 312 311 311 310 310 309 310 310 310 311 313 315 316
315 317 313 313 316 318 315 314 320 318 314 320 319 312 312 313 315 319 315 315 321 321 319 316 313 312 312 313 313 313 314 313 315 316 316 317 317 317 317 317 317 317 317 317 317 317 317 317 317 317 317 317 317 317 317 317 317 316 316 316 316 316 316 316 316 316 315 316 315 315 315 315 315 315 315 314 314 314 314 314 313 313 312 312 312 311 310 310 309 309 309 309 309 309 310 312 313
310 310 308 315 323 321 317 314 316 316 314 318 320 317 316 315 317 320 314 316 323 321 321 321 313 308 310 312 312 313 314 314 315 316 316 316 316 317 317 317 317 317 316 317 317 317 317 317 317 317 317 317 317 317 317 316 317 317 317 317 316 316 316 316 316 316 316 316 315 315 315 315 315 314 315 314 314 314 314 314 313 313 313 312 312 312 311 310 309 309 309 308 308 308 309 310 311
312 313 312 315 317 315 317 314 313 318 318 318 318 318 322 322 318 319 315 316 320 322 324 320 310 307 309 310 311 313 313 315 316 316 316 316 316 317 317 317 317 316 317 317 316 317 316 316 316 316 316 316 316 316 316 317 317 317 317 317 316 316 316 316 316 316 316 316 316 316 315 315 315 314 314 314 314 314 313 313 313 313 313 312 312 312 311 310 310 310 309 308 308 308 309 310 311
314 315 314 316 315 314 317 314 312 314 314 317 317 313 319 325 318 319 320 317 313 311 311 311 310 309 310 310 312 312 313 317 318 317 316 316 316 317 317 317 317 316 316 316 316 316 316 316 316 316 316 316 316 316 316 316 316 316 317 316 316 316 316 316 316 316 316 316 316 316 315 315 315 314 314 314 313 314 313 313 313 313 313 312 312 312 311 311 310 310 309 308 308 308 309 310 311
Wind_Speed
3 4 5 5 5 3 4 5 2 2 4 3 1 1 2 2 2 2 3 1 1 3 5 6 12 19 9 3 9 5 5 8 6 4 2 7 17 21 18 17 17 17 17 16 17 18 17 15 14 14 14 13 12 12 11 10 10 10 10 10 10 11 11 11 11 12 12 14 14 17 19 17 16 14 13 10 8 9 8 8 9 9 11 13 14 16 17 17 16 15 16 17 16 15 16 16 16
3 3 3 4 3 2 2 5 2 3 5 2 3 2 3 2 1 5 7 5 3 4 7 12 15 17 7 4 8 3 4 6 5 6 8 16 23 22 19 18 17 17 17 16 17 17 17 16 14 14 13 13 12 11 11 9 9 9 9 10 10 10 11 11 12 12 12 13 14 16 18 16 15 13 12 10 8 9 9 8 8 8 11 12 14 16 16 16 16 16 16 17 16 15 16 16 16
2 3 3 2 3 3 2 4 1 1 4 2 4 3 1 1 5 7 7 5 8 14 14 15 12 10 5 4 5 2 4 5 6 10 17 24 24 22 20 18 18 17 17 16 16 16 16 15 14 13 13 12 11 11 9 8 8 8 8 9 9 10 11 11 12 13 12 13 13 15 17 16 14 12 11 9 7 7 7 7 7 7 9 11 13 14 15 15 16 16 16 17 16 15 15 16 17
2 1 1 1 3 3 4 4 1 4 3 3 3 4 3 5 7 6 6 9 16 17 12 10 6 5 2 1 2 1 3 6 10 14 22 25 22 22 22 20 19 17 17 16 16 16 15 15 14 12 12 11 10 9 8 8 7 7 8 8 9 10 11 11 12 13 13 13 12 13 15 15 13 11 10 8 7 6 6 6 6 6 7 10 12 13 14 15 16 16 16 17 16 16 16 17 18
1 1 1 1 2 2 3 3 2 4 3 5 2 5 5 6 7 5 6 13 14 7 4 5 4 4 3 2 1 1 2 6 13 18 23 24 22 23 22 20 19 18 17 16 16 15 15 14 13 12 11 9 8 8 7 7 7 7 7 8 9 10 10 11 12 13 12 12 12 12 14 14 12 11 9 8 6 5 5 5 5 5 6 9 12 13 15 17 16 14 15 16 16 16 15 15 16
1 1 2 2 3 2 3 1 1 2 5 5 3 5 5 6 7 7 8 11 8 2 2 4 4 5 5 3 2 4 5 6 14 20 23 23 23 23 22 21 19 18 17 16 16 15 15 13 12 11 9 8 7 6 6 6 6 6 6 7 8 9 10 10 11 12 12 12 12 12 13 13 11 10 9 7 6 4 5 5 5 5 5 8 12 14 15 17 15 13 15 15 14 15 14 14 15
2 2 2 3 4 3 3 2 4 2 3 3 3 4 5 7 9 9 8 7 4 3 4 4 6 6 3 3 3 7 6 6 14 20 23 23 23 23 22 21 19 19 17 16 15 15 14 13 12 10 9 7 6 6 6 6 5 5 6 6 7 8 9 9 9 11 11 11 11 11 12 12 11 10 8 7 6 5 6 6 5 5 5 7 11 13 14 15 14 14 13 13 13 14 14 14 15
3 2 2 3 3 4 3 2 4 2 1 3 2 4 5 11 12 9 6 4 3 4 4 7 8 4 2 3 3 6 5 9 15 20 23 22 23 23 22 21 20 19 18 17 15 15 14 13 12 10 9 7 6 6 6 5 5 5 5 5 6 7 8 7 8 9 10 10 10 11 10 9 8 8 7 6 4 4 5 5 5 5 5 6 9 12 13 13 13 13 12 11 11 12 13 14 14
4 2 2 2 2 3 3 1 2 2 2 4 3 4 5 12 12 9 5 1 3 5 7 11 5 1 4 3 3 6 7 11 16 20 22 21 23 23 22 22 20 19 18 17 16 15 14 13 12 11 10 8 7 6 6 5 4 5 4 4 4 5 6 7 7 8 8 9 9 9 8 7 6 5 4 3 2 2 3 4 4 3 4 5 8 11 12 12 13 13 12 11 10 10 12 13 13
3 2 2 3 2 2 2 2 1 1 3 5 4 2 5 12 11 8 5 2 4 5 9 10 2 1 7 3 4 6 9 14 19 22 22 21 23 22 22 21 19 18 18 17 17 15 15 14 12 12 10 8 7 7 6 4 4 4 4 3 4 4 5 6 6 6 7 7 8 8 8 7 6 5 3 2 1 2 3 3 3 3 4 6 8 11 11 12 12 12 12 12 11 11 11 12 12
2 3 3 4 3 1 2 2 3 4 5 5 2 2 6 11 10 5 4 3 6 6 9 8 2 7 8 3 5 7 12 16 20 22 20 22 22 21 21 20 19 17 17 17 16 16 15 14 13 12 11 9 8 8 7 5 4 4 4 4 4 3 4 5 5 6 6 6 6 7 7 6 6 5 4 3 2 1 3 4 3 3 4 6 8 10 11 11 12 12 12 12 11 11 11 11 11
2 2 4 4 2 2 3 2 4 5 6 4 1 2 7 11 8 5 6 5 7 6 7 8 3 8 5 1 6 9 13 16 20 22 19 22 22 21 21 19 19 17 17 16 16 16 15 14 13 12 12 10 9 8 7 6 4 4 4 4 4 3 3 4 4 5 5 5 5 6 6 5 5 5 5 4 3 3 4 6 5 3 5 6 8 9 10 11 11 11 11 11 11 11 11 10 10
3 2 5 3 3 2 2 3 3 4 5 3 2 4 8 12 8 9 10 7 7 6 6 7 5 7 4 1 6 11 14 15 21 22 19 21 21 21 21 19 19 18 17 16 15 16 16 15 14 13 12 11 10 9 7 6 5 4 4 4 4 3 3 3 3 4 4 4 4 4 5 4 5 5 5 5 5 5 6 6 5 5 6 7 8 9 10 10 10 10 10 10 10 10 10 10 9
4 4 5 2 2 2 4 2 1 1 3 5 3 6 11 11 7 11 12 7 7 7 6 7 7 7 4 3 6 13 15 16 22 22 20 20 21 21 21 20 19 19 18 17 16 15 16 15 14 14 13 12 11 10 9 8 7 5 4 4 3 3 3 2 2 2 2 3 2 2 3 3 4 4 4 5 5 6 6 7 6 6 8 8 8 9 9 9 9 9 9 9 9 9 8 9 9
6 5 5 3 2 1 4 1 2 4 4 4 4 8 13 11 7 10 12 7 7 7 7 7 9 5 3 5 4 12 17 17 22 21 20 20 20 21 20 21 20 20 19 18 18 16 16 16 15 15 14 13 12 12 11 10 9 8 6 5 5 4 4 3 2 2 1 2 2 2 2 2 3 3 3 4 5 6 6 7 6 7 9 8 8 8 8 8 8 8 8 8 8 8 7 7 7
7 5 5 3 1 1 3 2 3 3 5 4 6 9 11 10 8 9 10 6 6 8 8 8 12 6 2 5 2 10 17 17 22 21 20 21 21 21 21 22 21 21 20 20 19 18 17 17 17 16 16 15 14 13 12 11 10 9 9 8 6 5 5 5 3 3 2 2 3 3 2 2 2 2 2 3 4 5 6 6 6 7 9 8 7 8 7 8 7 7 7 7 7 7 6 6 6
7 4 5 2 2 3 4 4 4 4 5 5 8 13 9 6 8 8 7 5 6 10 11 8 13 11 4 4 2 11 18 17 21 22 21 21 23 23 22 23 22 22 22 22 21 20 19 18 18 17 17 16 15 14 13 13 11 11 11 10 8 7 7 6 5 4 3 3 3 3 2 2 2 1 2 2 3 4 5 6 6 6 8 7 7 7 6 6 6 6 5 5 5 6 6 5 5
5 3 4 2 3 4 6 7 7 4 2 6 10 16 12 5 8 10 6 5 5 9 12 9 11 14 10 6 4 11 18 18 20 22 22 23 25 26 26 25 25 25 24 23 23 21 21 19 19 18 17 17 16 15 14 14 13 12 12 11 11 9 8 7 6 5 4 3 3 3 3 3 3 2 3 3 3 4 4 5 5 6 6 6 6 6 5 4 4 4 4 4 4 5 5 5 5
4 3 3 3 6 5 6 8 9 3 1 8 11 15 13 6 10 12 5 4 6 7 9 9 11 14 13 10 8 12 18 19 20 21 22 23 26 28 28 27 27 27 26 25 24 23 22 20 20 19 18 17 17 17 16 15 14 13 13 12 12 11 10 9 8 7 6 4 4 4 4 4 4 4 4 4 5 5 5 6 6 6 6 5 5 5 4 3 3 3 3 3 3 3 4 4 4
2 4 3 4 6 4 5 6 7 5 2 9 12 12 11 7 10 12 6 4 5 7 10 11 13 15 14 12 10 13 18 20 20 20 21 21 23 26 27 26 26 26 26 25 25 24 23 22 21 20 19 19 18 18 17 17 16 15 14 14 13 13 12 11 10 9 8 7 6 5 5 6 6 6 5 5 6 6 6 6 6 6 6 6 4 4 4 3 2 1 1 1 1 2 3 3 3
2 5 3 5 5 1 3 4 4 6 5 9 11 9 7 8 11 11 8 5 3 11 17 16 15 15 15 14 13 15 19 20 21 21 21 21 21 22 23 23 23 23 24 25 26 26 24 23 22 21 21 20 20 19 19 18 17 17 16 15 15 14 14 13 12 11 10 9 8 7 6 6 7 7 7 6 6 7 7 7 7 7 7 7 5 5 4 4 3 2 0 1 0 1 2 2 2
3 2 2 4 6 2 1 2 3 7 8 9 11 8 7 9 10 11 11 7 6 11 16 17 17 15 14 15 14 16 20 20 21 21 21 21 20 20 20 21 22 22 24 25 25 25 25 24 23 23 22 21 21 21 20 20 19 19 18 17 16 16 15 15 14 13 12 11 10 9 8 7 8 8 8 7 7 7 8 8 8 8 8 8 8 7 6 5 4 3 2 1 2 1 1 2 3
3 1 1 5 6 2 1 1 2 5 9 13 13 9 8 9 7 9 14 15 11 6 7 11 15 16 14 15 15 17 20 21 21 20 20 20 19 18 18 20 21 22 23 23 23 23 24 24 24 24 23 22 22 22 22 22 21 21 20 19 17 17 17 17 16 15 14 13 12 11 10 9 8 8 8 8 8 8 9 9 9 9 10 10 10 9 7 6 5 4 4 3 3 3 3 3 5
3 1 2 5 4 1 2 1 2 4 9 13 13 9 7 8 6 5 13 21 16 9 5 5 10 15 16 16 16 17 17 19 19 18 18 18 17 17 18 19 20 21 22 23 22 22 22 22 24 24 24 23 23 23 23 23 23 22 22 21 19 19 18 18 17 17 16 15 14 13 12 11 10 9 9 9 9 9 10 10 10 10 11 11 11 10 9 8 7 6 5 5 5 5 5 5 7
2 3 4 5 3 2 3 4 5 5 7 10 10 7 4 6 5 5 13 19 16 16 14 9 8 13 18 18 17 18 18 19 19 20 20 20 19 19 20 21 22 23 23 22 21 21 21 21 22 24 25 24 24 24 24 24 24 24 24 23 22 20 19 19 18 18 18 17 16 15 14 13 12 11 10 10 10 10 10 11 11 11 11 12 12 11 11 10 9 8 7 6 6 6 6 6 8
2 5 6 6 3 3 4 4 6 7 8 9 8 3 1 3 3 8 15 17 14 16 17 16 12 11 16 20 19 18 19 20 20 21 21 21 22 23 22 22 23 23 22 21 22 21 20 20 21 23 24 25 25 25 25 25 25 26 25 24 23 22 21 20 20 20 19 19 18 17 17 16 14 13 12 12 12 11 11 11 12 12 12 12 12 12 11 11 10 9 8 8 8 8 8 7 9
6 10 9 6 4 4 3 4 5 6 7 6 6 2 1 2 1 6 8 7 10 14 15 17 16 12 13 18 20 20 19 19 19 21 22 23 24 23 22 23 23 22 22 22 22 22 21 22 21 22 24 25 26 27 27 26 26 27 26 25 25 24 23 22 22 22 21 20 20 19 19 18 17 16 15 14 14 13 13 12 12 12 12 12 13 13 13 13 12 11 10 9 9 9 9 9 10
11 14 9 6 4 3 3 3 4 4 4 3 5 1 2 2 2 9 9 3 3 8 13 15 17 15 12 14 18 20 20 19 21 23 23 24 23 22 22 21 20 21 21 20 21 23 23 23 23 23 24 25 27 28 28 28 27 27 27 26 26 25 24 24 24 24 23 22 21 21 21 20 19 18 18 16 15 15 14 14 13 13 13 13 13 13 14 14 14 13 12 11 11 11 10 10 11
10 9 4 5 6 3 2 2 2 2 2 2 5 1 4 3 8 12 10 9 6 5 10 14 17 18 15 14 16 19 19 19 22 24 23 23 22 22 22 20 20 21 20 20 21 24 24 23 24 24 24 25 27 28 29 29 28 28 28 28 27 27 26 26 25 25 25 24 23 22 22 22 21 20 20 18 18 17 16 16 15 14 14 14 14 14 15 16 16 16 15 14 13 12 12 12 12
5 4 4 2 6 3 3 2 2 3 2 3 5 1 6 8 14 13 9 10 9 7 9 12 15 18 18 18 18 19 20 21 23 22 22 23 24 24 24 22 23 23 21 22 24 24 24 24 24 25 25 26 26 27 29 30 29 29 29 29 28 28 28 28 27 27 26 25 24 23 23 23 23 22 22 21 20 19 19 19 17 16 16 15 15 16 16 17 17 17 17 16 15 14 13 13 13
2 2 2 2 1 4 5 2 2 5 2 2 6 2 6 9 10 9 11 13 12 11 11 11 13 15 18 20 21 23 22 23 23 21 21 22 24 25 25 24 24 25 24 24 24 24 24 25 25 26 26 26 27 27 29 30 31 30 30 30 30 29 29 29 29 28 28 26 25 24 24 24 24 24 23 23 22 22 21 21 20 19 18 17 17 17 18 18 18 18 18 17 17 16 15 15 15
3 2 1 3 3 5 7 2 2 4 2 2 6 2 6 9 7 1 4 8 11 14 14 14 16 16 17 19 21 24 24 24 24 23 22 22 23 25 25 25 25 25 25 24 24 25 26 26 26 27 26 27 27 27 28 29 30 31 31 31 30 30 30 30 30 30 29 28 27 26 25 25 26 25 25 25 25 24 24 23 23 22 21 19 18 18 19 19 19 19 19 19 18 18 17 17 16
4 3 2 1 3 3 5 2 2 2 2 1 2 2 4 4 5 2 3 0 3 7 11 11 13 15 16 17 19 21 23 23 24 24 23 22 22 23 23 24 24 24 25 25 25 26 26 26 27 27 27 27 27 27 27 27 29 29 30 31 31 32 31 29 29 29 30 30 28 28 27 26 26 26 26 26 25 25 25 24 23 23 22 21 20 20 20 20 20 21 21 20 20 19 19 18 18
2 2 2 2 3 2 2 2 3 4 2 1 2 2 7 7 8 8 6 6 7 9 12 11 11 12 13 15 17 19 21 23 24 23 21 21 21 21 21 21 22 23 24 25 25 26 26 26 27 27 27 27 27 28 28 27 28 28 28 29 30 31 30 30 29 28 28 30 31 30 29 27 26 27 27 27 26 25 24 24 24 23 22 21 21 22 22 22 22 22 22 22 21 21 21 20 19
5 3 2 2 2 2 3 2 2 4 2 1 1 3 9 11 13 18 18 13 12 15 17 18 18 17 17 17 19 20 21 23 23 21 19 19 20 20 20 20 21 22 22 23 24 25 26 26 27 27 27 27 27 28 28 28 28 29 29 29 29 30 29 29 31 30 27 29 30 29 30 30 27 25 26 27 27 25 24 25 26 24 23 23 23 23 24 24 23 24 25 24 24 23 22 21 20
8 6 5 4 3 4 5 4 4 2 2 3 5 6 8 11 11 17 22 15 12 17 19 21 23 23 24 24 25 25 25 27 25 21 20 21 21 21 21 21 22 22 23 23 24 25 25 25 26 26 26 26 26 28 28 29 30 31 31 32 33 31 31 32 32 30 28 30 31 30 32 31 26 24 25 25 26 27 26 25 26 26 26 26 25 25 26 25 25 27 28 27 27 27 26 24 24
7 6 4 4 4 3 3 3 5 2 3 3 4 4 8 12 11 15 25 19 13 18 21 25 27 26 28 28 30 30 30 30 28 27 26 26 26 26 25 24 24 25 25 25 25 25 24 24 24 24 24 24 26 27 28 29 31 32 32 34 35 33 33 35 35 33 30 31 31 32 32 27 25 30 31 27 25 27 29 29 27 27 27 26 27 27 25 26 28 30 30 29 30 30 29 28 27
6 6 5 2 2 3 2 1 5 3 1 2 3 5 9 12 11 16 21 16 13 20 22 25 28 28 30 31 32 33 32 32 31 30 29 29 29 28 27 27 27 27 26 25 24 23 23 24 24 22 22 24 25 25 27 28 29 30 31 32 32 32 31 32 35 35 33 30 28 29 32 29 26 31 36 33 26 24 29 33 32 31 30 27 28 30 29 28 30 33 32 31 32 33 32 31 30
5 4 5 2 2 3 3 2 4 4 0 3 4 5 10 11 11 15 19 16 18 23 24 26 28 29 33 34 34 34 33 33 32 31 30 29 29 29 28 28 28 28 26 25 25 24 24 24 23 22 22 23 23 23 25 26 26 27 28 29 29 29 29 28 31 34 34 32 28 28 35 35 30 32 36 36 31 27 30 34 36 36 36 32 30 31 33 32 31 34 35 35 35 35 35 34 32
4 4 5 3 2 1 2 2 4 4 2 1 3 5 8 8 7 12 17 17 19 23 25 28 28 30 33 33 32 32 31 30 29 28 26 26 27 28 29 29 28 28 27 27 26 25 25 24 22 21 21 21 21 22 22 23 24 26 27 28 28 28 29 28 29 31 33 33 31 31 35 36 35 35 35 34 35 34 35 35 38 41 41 40 36 34 36 37 33 32 32 35 40 41 39 37 35
1 3 6 4 3 4 3 1 2 3 3 3 3 5 7 5 5 8 8 7 10 14 17 22 23 25 26 26 25 24 22 21 19 16 14 15 19 22 25 26 27 27 27 26 25 25 24 23 22 21 21 20 20 20 21 22 24 25 27 28 29 30 31 31 31 31 31 32 33 33 33 34 36 37 35 35 37 37 36 36 39 45 46 43 41 40 41 40 36 33 30 33 42 46 43 40 38
2 3 6 6 7 6 2 2 3 4 4 4 4 3 6 5 5 8 6 6 8 9 9 17 21 19 20 22 22 20 17 14 10 7 7 10 14 16 19 21 24 25 24 23 23 23 23 22 21 21 20 20 19 19 19 21 22 24 26 28 29 30 32 32 31 30 30 30 30 30 31 31 33 35 34 35 36 37 37 36 35 40 45 45 44 45 45 42 40 37 34 36 43 48 47 44 41
2 4 5 6 7 7 6 4 4 1 2 3 4 2 5 7 6 8 6 7 10 10 9 16 21 18 16 19 20 19 18 15 12 9 8 11 13 15 17 18 19 19 20 20 21 21 21 20 20 19 19 18 17 17 18 20 21 22 24 25 27 28 29 30 28 27 27 27 27 28 29 28 29 33 36 36 36 37 37 39 37 35 40 43 43 44 45 43 41 40 41 42 45 50 51 47 44
3 3 5 8 7 7 6 6 4 2 3 4 4 4 2 6 6 6 5 6 10 11 10 14 18 18 17 17 18 17 15 13 15 14 10 10 13 14 16 16 15 16 17 18 19 18 18 18 17 17 17 17 17 17 17 18 19 20 21 22 24 26 27 27 26 26 26 26 26 27 27 28 28 31 35 37 38 38 37 38 38 36 38 40 40 42 44 43 41 43 46 45 46 51 53 50 47
3 3 6 6 7 7 5 6 4 1 1 4 4 2 1 6 7 5 5 4 8 10 11 12 16 17 15 14 15 15 12 11 13 13 10 10 11 12 14 14 15 15 17 18 17 17 17 16 16 16 16 16 16 16 17 17 18 18 19 21 22 23 24 25 25 26 26 26 27 27 26 27 28 29 31 32 35 38 39 38 38 38 40 43 44 46 47 45 41 42 45 45 46 49 51 51 51
4 6 7 6 6 6 5 5 4 3 2 5 5 0 1 5 8 4 2 3 7 9 9 9 12 12 11 9 7 8 11 9 9 11 10 10 10 10 12 13 14 15 17 18 17 17 17 16 16 16 15 15 15 15 16 16 17 18 19 20 20 21 21 23 24 25 26 26 27 27 27 27 28 29 30 31 32 35 37 38 38 38 41 44 45 46 46 45 44 48 51 50 48 48 48 50 53
10 7 7 7 7 5 4 3 4 3 2 6 6 2 0 3 7 5 4 5 6 5 6 8 10 10 10 7 3 3 8 10 10 10 10 9 8 9 10 11 13 14 16 16 16 16 15 15 15 14 14 14 14 14 15 15 16 17 17 18 18 19 19 21 23 24 24 25 26 26 26 26 27 29 30 31 33 34 36 38 40 42 45 46 45 45 45 46 47 50 52 51 49 49 50 50 51
8 4 5 5 4 4 4 4 3 2 4 6 4 2 1 4 6 5 5 7 6 5 5 7 9 10 9 8 7 5 9 11 11 10 10 9 7 7 7 8 10 12 13 14 13 13 12 12 12 11 11 11 11 11 12 12 14 14 15 15 16 16 17 19 20 21 22 23 24 25 25 26 27 29 29 30 32 33 35 37 39 42 45 46 46 47 48 49 50 47 46 47 46 47 53 54 53
5 5 6 5 2 3 2 3 1 3 6 4 2 1 2 6 8 8 11 12 7 6 8 9 10 10 8 7 6 7 10 10 10 10 10 10 9 8 7 7 9 10 11 11 11 10 10 9 9 8 7 7 7 7 7 8 10 11 11 12 13 13 15 17 18 19 20 21 22 23 25 26 27 27 28 29 29 29 30 32 35 37 39 42 45 46 45 46 49 48 48 48 46 46 52 57 58
4 6 6 4 3 2 2 4 2 3 4 3 3 2 3 5 6 9 14 13 7 6 10 11 10 10 9 7 4 5 9 10 9 9 11 12 11 10 9 9 9 10 10 10 10 9 8 7 7 6 6 6 5 5 6 6 7 8 9 10 10 12 13 15 16 17 18 19 21 22 23 24 25 26 26 27 26 26 28 28 30 32 34 36 40 44 44 44 45 46 48 49 50 50 51 53 56
3 3 5 5 5 5 4 4 3 4 3 3 3 2 3 3 3 6 12 14 13 13 15 16 15 14 12 10 4 1 6 8 7 9 11 12 11 11 11 10 10 10 9 9 8 8 7 7 7 6 6 6 6 6 6 6 6 6 7 8 9 11 12 14 15 17 18 19 20 22 22 23 23 24 24 25 25 25 26 27 28 30 31 33 36 40 43 46 47 49 50 51 52 52 52 52 53
2 2 5 3 4 5 3 3 5 3 1 2 2 3 5 4 6 9 9 11 12 11 13 16 19 17 13 11 7 3 5 7 6 7 10 10 10 11 11 11 11 10 9 8 7 7 7 7 7 7 6 6 5 5 4 3 3 4 5 6 8 10 12 14 15 16 17 19 20 21 22 23 23 24 24 24 24 24 25 26 27 29 30 31 33 36 39 43 47 50 53 54 55 54 54 54 54
2 2 3 5 4 7 6 2 1 3 1 3 1 4 6 4 6 9 6 8 10 8 8 10 14 14 13 12 9 6 6 6 6 8 10 10 10 10 11 11 11 10 9 8 8 8 8 7 7 6 5 4 4 3 3 2 1 1 2 4 7 9 11 14 15 17 18 19 21 22 22 23 24 24 24 24 24 25 25 26 27 28 29 30 32 34 36 39 43 48 53 55 57 57 56 56 55
4 3 5 4 3 5 5 2 3 4 2 4 1 5 5 2 4 7 5 3 8 9 8 6 8 10 12 13 10 7 6 7 8 10 11 11 11 11 11 12 11 11 11 11 11 11 10 9 8 7 6 4 4 3 2 1 1 2 4 5 7 9 11 13 15 17 18 20 22 22 22 23 24 24 25 25 26 26 26 27 27 28 28 29 31 32 34 36 39 44 49 52 55 56 56 56 56
4 4 4 4 3 2 2 2 2 1 2 4 4 4 4 4 5 5 4 5 8 10 9 6 8 10 11 10 7 4 4 7 10 11 12 12 11 12 13 13 13 14 14 13 12 10 8 7 5 4 3 2 1 1 1 2 4 5 6 8 9 11 13 14 15 17 19 21 22 22 23 24 25 25 26 26 27 27 28 28 29 29 29 29 30 31 32 34 35 37 40 45 48 50 52 53 54
4 3 3 3 3 4 2 2 4 3 3 3 4 4 4 7 6 5 8 9 8 9 8 7 10 8 6 6 3 0 1 5 10 11 13 14 13 14 15 15 16 16 15 12 10 7 5 4 2 2 2 3 4 4 4 6 8 8 9 11 12 14 15 16 17 18 20 21 21 22 23 24 25 26 27 27 27 28 29 29 29 29 29 30 31 32 33 34 34 33 34 39 42 43 45 48 49
3 3 3 1 1 2 2 0 2 4 4 3 2 4 5 6 4 7 10 9 8 8 6 7 11 6 4 5 5 4 3 7 10 11 14 16 15 16 17 17 17 16 13 10 6 3 1 0 2 3 4 6 7 7 7 9 10 11 12 12 14 15 16 17 19 20 22 23 22 22 21 22 24 25 26 27 28 29 29 30 30 30 29 30 30 31 32 33 35 34 32 35 39 41 43 44 44
6 5 6 6 4 4 3 3 1 3 3 4 3 4 8 6 5 7 7 5 6 7 5 8 14 12 8 7 7 7 6 9 11 11 12 14 16 18 17 15 13 11 9 6 3 3 4 4 5 6 6 7 9 10 10 11 11 11 12 13 14 15 16 18 20 22 23 23 23 22 22 22 23 23 25 26 28 29 30 31 31 31 31 31 31 31 31 32 34 34 33 33 35 39 42 43 44
Wind_Direction
224 229 255 273 300 297 354 21 79 2 65 85 327 180 230 217 172 163 153 156 127 204 192 160 157 160 161 191 193 190 143 159 169 139 174 172 146 152 156 158 156 149 149 145 145 145 144 145 148 145 139 139 134 132 127 116 103 92 85 78 71 67 68 72 81 84 84 81 85 102 102 101 103 100 97 89 77 71 71 76 71 76 88 89 88 87 88 90 90 81 72 69 71 76 80 81 79
217 234 274 282 316 335 349 34 82 337 53 96 269 181 249 318 151 182 177 202 184 158 155 142 147 161 164 144 154 131 136 166 165 133 136 147 146 152 158 159 154 151 150 145 146 144 145 147 148 145 143 142 136 135 128 119 106 93 86 78 72 69 72 75 79 82 82 82 87 101 105 104 103 101 99 94 84 76 71 75 72 78 90 90 88 88 86 86 86 82 74 68 69 73 79 81 79
214 245 290 295 354 26 47 45 76 67 80 172 258 246 239 157 191 203 195 193 130 122 127 130 133 150 153 122 133 143 174 184 162 133 139 150 151 155 159 159 155 154 151 145 145 144 146 146 145 147 146 142 136 134 128 121 108 97 88 78 74 73 78 80 81 82 81 83 91 102 105 103 103 103 102 101 93 80 70 71 72 77 90 91 89 88 86 84 81 77 70 64 69 75 79 82 81
204 254 311 50 41 34 65 52 113 121 137 199 256 260 220 182 200 218 190 150 130 120 120 126 116 132 168 177 142 156 174 177 164 147 149 155 156 158 159 159 158 156 153 149 147 146 147 145 145 149 147 139 135 133 129 123 113 101 90 82 76 77 84 85 82 80 81 83 90 105 108 105 107 107 105 106 99 85 73 72 76 80 88 91 89 87 85 81 76 71 63 59 66 74 79 84 87
199 267 101 85 54 58 88 70 105 118 192 187 186 254 231 199 190 194 169 154 149 120 107 137 115 119 123 113 102 179 164 159 161 156 154 156 158 160 159 159 160 158 156 152 149 150 150 149 149 151 145 137 136 134 132 128 119 105 92 85 76 79 88 89 85 80 81 84 90 104 110 110 111 112 110 108 106 100 87 76 80 85 88 92 90 88 87 82 77 74 70 65 63 71 80 87 91
154 115 87 78 77 101 117 109 165 188 221 168 150 246 227 205 179 159 157 163 179 227 188 170 150 138 112 79 70 138 133 148 162 157 155 157 159 161 162 162 161 160 160 157 155 155 155 155 153 152 148 142 142 140 138 133 123 109 94 85 76 77 87 92 89 83 81 85 93 103 113 115 114 117 115 110 113 118 105 88 85 90 92 92 90 89 91 91 91 88 84 81 73 72 77 84 88
142 131 74 89 76 59 108 162 205 216 231 167 155 236 213 185 167 149 148 160 198 226 193 179 154 137 110 89 108 138 128 150 160 154 155 159 160 163 164 164 164 163 162 162 161 160 160 160 157 157 156 151 149 147 144 141 131 119 103 87 79 75 83 93 91 86 79 81 89 100 117 123 121 124 130 130 119 104 97 90 85 91 93 87 89 91 92 96 100 100 97 97 93 85 82 86 89
137 127 69 102 58 32 83 132 212 202 243 238 227 247 204 166 161 152 155 165 179 191 174 162 146 118 154 144 144 159 145 155 158 156 159 162 163 165 167 167 167 167 167 167 166 166 165 165 163 163 164 160 154 152 151 149 141 133 120 94 84 76 77 90 95 91 82 79 85 93 110 124 130 135 145 151 134 97 88 84 80 87 93 82 85 91 92 93 95 96 98 101 101 97 93 94 97
140 122 57 92 83 41 37 28 231 229 278 275 270 259 188 162 161 153 157 175 168 174 166 160 139 28 180 161 158 171 169 163 160 160 162 166 167 168 170 171 171 171 172 171 171 172 171 171 169 169 169 165 160 156 156 154 148 146 139 113 95 82 74 87 99 98 89 82 83 89 98 107 120 131 144 160 160 122 107 95 87 95 98 84 88 94 93 92 91 90 91 93 95 101 102 102 103
127 78 96 81 87 44 353 291 255 251 266 272 268 243 169 166 165 157 157 153 163 158 160 164 128 133 164 164 159 168 175 166 162 165 167 170 171 172 174 173 175 176 176 175 175 177 175 178 176 174 175 172 167 161 159 154 150 157 153 137 116 97 77 84 97 101 99 87 83 86 91 95 97 106 122 149 175 178 158 135 121 128 111 94 99 100 97 93 90 88 87 89 91 98 103 104 105
105 48 98 75 72 79 218 231 286 281 283 300 290 220 179 173 163 159 165 150 165 152 156 170 188 152 149 168 176 176 175 168 167 169 170 173 176 176 177 176 176 181 183 181 180 180 180 183 182 178 181 181 178 172 165 158 153 160 162 155 137 115 84 83 93 101 104 93 85 82 85 90 90 98 108 115 122 145 157 156 161 149 116 105 105 101 99 95 88 84 82 84 88 94 99 102 105
149 29 78 82 127 206 205 189 285 296 313 328 309 199 187 177 163 180 177 161 170 160 166 174 188 161 138 175 188 187 177 171 170 173 175 176 179 179 181 180 178 183 188 190 187 184 185 186 187 184 185 188 189 184 178 171 161 155 157 163 156 141 108 91 92 102 112 104 89 80 80 84 87 95 102 105 102 108 131 151 167 147 119 114 109 101 98 92 84 80 78 80 84 90 95 101 107
165 136 94 97 158 165 160 161 284 329 330 284 202 177 182 181 192 205 177 160 170 159 178 185 194 173 151 185 192 193 182 177 173 174 179 176 180 184 184 183 182 187 190 196 195 191 189 189 192 190 191 194 197 196 194 192 180 163 159 169 172 170 142 107 96 105 115 113 98 79 72 75 86 89 94 102 104 113 127 144 159 139 121 119 112 104 97 89 81 77 75 76 79 87 95 102 110
159 146 115 109 89 119 148 146 272 132 267 258 196 174 181 190 220 211 176 159 179 167 180 192 187 175 169 173 200 200 183 180 178 175 179 179 182 186 187 186 187 190 192 199 201 200 195 193 196 196 197 199 202 204 205 207 201 194 185 186 188 193 174 141 121 118 117 122 116 90 79 74 83 87 91 98 105 114 127 144 154 135 126 123 115 106 96 86 78 74 74 75 77 83 93 103 113
159 137 100 103 57 82 169 165 132 142 239 235 174 183 183 201 232 206 184 169 185 178 179 184 179 182 200 182 204 203 186 181 180 177 180 181 184 187 190 190 191 194 195 200 203 206 203 200 200 201 204 204 207 207 210 213 212 211 205 206 202 202 197 183 173 160 152 149 150 136 117 98 94 96 98 99 105 110 124 144 149 134 132 129 119 111 99 87 77 70 71 75 80 84 90 102 115
155 138 75 86 110 188 180 161 114 123 252 209 165 181 180 213 225 195 190 170 175 182 181 183 185 193 195 185 208 195 190 187 182 180 182 185 188 188 193 194 196 198 198 201 203 206 206 206 205 207 210 209 212 210 214 216 216 217 213 216 210 207 207 202 199 192 192 174 171 166 148 135 122 111 115 113 111 113 123 142 152 138 138 137 127 121 106 93 81 69 66 70 80 87 92 102 116
139 124 69 80 167 199 189 170 163 163 243 221 174 179 174 222 215 188 186 173 181 187 187 193 197 203 206 201 223 192 193 193 186 184 184 188 191 192 195 197 199 201 201 202 203 205 206 208 209 211 214 214 216 214 217 218 220 220 217 219 216 215 212 212 216 211 212 190 184 183 173 174 168 156 153 147 134 131 133 148 161 145 142 143 137 135 120 103 89 73 63 62 75 85 93 104 116
129 110 94 151 183 197 189 179 189 165 206 207 185 184 181 207 197 180 178 180 195 196 199 207 206 210 219 227 227 198 195 197 193 189 187 190 192 195 197 199 201 203 203 203 203 205 206 208 210 213 217 219 220 219 220 220 223 223 223 222 219 221 218 221 224 224 229 215 208 204 199 203 202 196 183 184 169 157 157 167 173 159 156 155 149 151 138 117 100 82 68 56 68 80 87 100 114
117 97 110 202 203 201 191 180 188 170 165 188 183 187 190 209 186 176 186 184 179 195 209 217 218 217 219 221 217 204 198 199 200 197 194 193 193 195 198 200 202 204 205 205 205 206 207 208 210 213 217 220 223 223 223 223 225 226 227 225 223 223 221 225 227 228 232 230 228 218 214 213 212 208 198 197 191 184 179 181 185 178 175 173 165 166 162 147 120 95 77 56 60 76 83 95 113
120 105 123 237 213 207 206 192 199 209 189 172 178 189 198 212 183 181 191 163 172 206 212 213 220 219 216 215 212 204 199 201 204 204 203 201 199 199 200 201 203 205 207 208 207 208 210 209 210 213 216 219 222 224 225 225 226 228 229 228 227 224 223 225 228 229 229 231 232 229 224 219 218 216 209 207 205 203 197 195 196 191 192 194 186 182 183 179 163 130 82 49 46 71 87 95 115
153 129 166 226 187 165 214 205 227 219 196 177 177 177 200 202 183 187 175 142 231 230 218 218 224 220 211 210 211 203 200 202 205 207 209 209 208 205 205 207 209 209 209 211 212 212 213 212 211 214 217 218 221 223 225 226 227 229 230 229 228 227 225 226 229 230 230 231 233 233 231 226 224 221 217 215 213 212 209 209 208 200 201 207 204 200 203 206 203 201 223 1 336 79 105 116 126
139 148 201 173 149 107 183 199 234 209 190 179 171 168 191 184 184 198 180 174 232 236 230 230 233 229 218 215 212 202 200 204 207 211 213 213 214 213 211 211 213 214 213 215 216 217 218 216 214 214 217 219 220 223 225 228 228 230 233 231 229 228 227 227 230 231 231 231 232 236 237 234 232 227 224 218 216 218 216 215 214 208 207 213 216 215 218 222 226 235 253 277 260 233 182 163 153
147 240 229 158 157 103 93 191 207 192 182 176 174 182 185 170 189 211 203 216 227 241 250 240 237 231 225 222 214 206 204 207 212 217 218 217 216 215 213 212 214 215 217 221 222 224 223 219 217 217 218 220 222 224 225 228 230 232 235 236 234 231 230 229 231 232 234 234 233 237 240 242 240 236 232 225 221 220 221 219 216 214 213 216 220 223 228 231 237 244 255 262 253 244 224 192 175
120 167 194 163 178 135 59 69 150 167 183 180 177 185 187 179 196 223 226 232 232 236 254 259 244 228 224 224 219 218 215 216 220 224 225 224 222 219 218 217 218 220 222 226 227 228 228 223 220 219 220 221 223 225 226 228 231 234 236 239 238 235 233 232 234 234 234 236 236 237 238 241 242 242 240 233 228 224 223 222 220 219 219 221 223 226 231 236 242 246 255 258 254 249 238 219 195
91 154 181 147 143 148 86 79 123 143 165 170 171 178 200 203 210 253 247 244 238 235 241 258 259 229 223 223 224 224 222 223 225 225 226 227 227 224 223 223 224 225 225 228 229 230 230 227 224 223 223 223 225 227 228 229 231 234 236 239 240 238 235 234 236 237 236 237 238 238 239 240 242 244 245 240 234 229 226 225 225 225 225 226 226 229 233 237 242 246 252 254 253 250 243 235 214
172 146 157 138 106 116 118 111 115 127 144 155 168 171 205 204 240 270 258 257 249 239 240 245 250 240 227 224 226 227 227 229 229 228 228 227 226 227 226 227 228 229 229 231 233 233 232 231 229 227 227 227 227 228 230 231 232 235 237 239 241 241 238 236 235 236 237 238 239 240 240 241 242 242 245 245 239 234 231 228 228 229 229 230 229 231 234 238 241 243 248 251 251 248 242 236 224
154 127 118 104 91 100 124 141 114 117 127 143 170 185 257 166 196 259 254 268 251 237 236 236 239 244 236 226 225 227 231 234 234 233 230 228 227 229 229 228 231 232 232 233 234 235 236 235 234 232 232 231 230 231 232 233 233 236 238 239 241 243 241 238 236 236 237 238 240 241 241 241 241 241 242 243 241 236 235 232 231 232 234 234 233 234 235 239 241 240 241 245 248 248 244 235 224
134 126 105 47 53 93 81 129 130 119 110 124 147 152 303 105 190 239 232 251 276 234 229 231 232 238 239 229 224 225 231 234 236 235 233 233 233 234 232 231 234 235 235 236 236 237 238 239 239 238 236 235 234 234 235 235 235 237 239 240 241 243 244 242 238 236 237 237 238 239 241 243 243 243 242 242 241 238 237 236 235 235 238 239 238 237 237 238 240 240 238 237 240 243 243 237 227
124 121 117 359 14 39 7 71 145 137 108 129 118 62 293 223 227 239 234 237 261 254 233 233 232 234 237 234 228 227 232 234 235 238 239 240 241 241 239 239 240 241 242 243 241 240 241 241 243 243 242 240 238 236 237 238 238 238 241 242 242 243 244 245 243 239 238 237 238 240 241 243 244 244 244 242 240 238 238 238 239 239 239 241 240 239 239 239 240 240 239 237 237 239 240 236 229
118 82 114 28 13 350 318 20 143 142 126 157 133 248 274 252 241 239 240 234 239 247 235 232 233 234 236 237 237 237 238 239 241 246 246 243 243 242 243 243 243 245 248 247 246 246 245 245 245 245 245 245 244 241 239 240 241 240 242 244 245 245 245 246 246 244 241 239 238 239 241 243 244 244 245 245 241 239 238 237 239 240 241 241 241 241 240 241 242 242 241 239 237 238 238 236 232
98 60 70 59 118 263 302 336 160 142 163 174 133 205 265 267 261 243 241 236 234 243 234 229 236 236 238 240 241 244 245 245 249 251 249 247 244 243 244 243 243 245 247 248 251 252 251 250 249 248 247 247 248 246 244 243 244 243 244 246 247 246 246 247 249 248 246 244 242 240 241 243 244 244 245 246 245 242 240 239 238 239 241 242 242 243 242 242 243 243 243 241 239 239 238 236 232
39 101 309 352 160 256 310 336 155 143 178 142 121 212 269 269 274 248 227 234 232 244 246 246 250 245 243 245 245 249 250 249 252 251 249 247 245 244 244 244 244 246 248 250 252 253 254 254 253 253 251 250 249 249 248 246 245 245 246 249 251 251 249 246 247 249 251 250 247 244 242 242 244 245 244 246 247 246 245 243 240 239 239 240 242 243 243 244 244 244 243 242 241 240 240 238 233
1 103 187 261 166 263 315 348 344 79 136 55 106 221 267 285 269 169 116 31 234 251 261 260 257 251 246 248 251 252 252 250 250 250 248 247 246 245 244 245 246 248 251 252 253 254 254 255 256 256 255 254 254 253 252 249 247 247 246 247 250 253 253 250 248 248 251 253 253 251 249 245 245 246 246 246 246 248 251 251 247 243 241 239 241 244 246 245 244 243 243 243 241 240 240 239 236
309 45 116 224 185 203 285 299 337 34 99 275 29 232 249 275 278 255 256 290 291 283 281 277 271 260 251 250 252 251 251 249 247 246 247 248 249 248 248 248 249 250 252 253 253 253 254 255 255 256 257 256 256 256 256 254 252 250 249 248 248 251 252 252 253 252 250 250 252 254 255 253 251 248 247 248 247 247 251 255 255 251 249 246 243 243 245 247 245 244 243 243 241 240 240 239 238
194 186 148 218 206 209 251 251 304 18 66 238 312 274 263 273 280 275 275 281 282 281 281 280 276 268 262 259 256 254 252 249 246 245 245 248 249 250 251 252 252 252 252 252 253 253 252 252 252 253 254 253 253 254 255 255 254 252 251 252 253 254 254 251 251 253 252 251 253 253 252 255 259 252 246 249 252 251 251 253 253 252 252 253 252 247 243 244 246 246 242 240 240 238 238 238 238
177 177 145 155 173 233 246 244 282 7 110 246 251 252 271 276 281 283 281 282 281 281 281 278 274 269 266 262 259 257 254 253 251 249 248 249 250 251 252 252 252 251 251 252 253 253 252 250 249 249 248 249 249 248 248 249 249 248 246 247 248 249 251 253 255 253 249 250 253 251 249 253 260 258 255 256 253 252 257 258 253 251 250 248 250 251 247 247 248 248 245 240 238 236 234 233 235
138 131 120 148 173 246 257 262 305 23 138 257 273 271 277 273 276 279 280 285 285 280 279 275 271 267 264 262 261 259 258 258 258 256 255 255 256 255 254 251 249 249 249 251 253 254 254 251 250 248 246 246 245 243 243 243 243 244 242 242 243 242 241 246 254 256 250 246 247 248 252 257 260 256 255 258 255 252 258 259 253 251 252 249 249 250 254 256 252 248 246 243 241 237 235 233 231
98 134 144 170 198 232 254 268 316 11 142 264 356 323 278 268 273 274 277 283 274 267 266 267 268 267 266 265 264 263 263 263 263 261 259 259 259 257 255 252 247 247 247 250 253 255 255 252 250 249 246 244 244 244 243 243 244 245 245 245 245 246 243 242 247 254 258 257 253 254 257 259 264 259 250 249 253 257 262 259 255 254 252 250 248 247 254 260 256 249 246 246 245 239 237 235 232
88 116 134 171 222 240 278 299 330 15 109 262 355 336 278 266 269 269 266 261 259 262 259 261 265 266 267 268 268 269 269 268 266 264 262 260 259 257 253 249 245 245 246 248 250 251 250 248 247 247 246 245 245 246 247 248 249 249 250 251 250 251 251 249 247 249 255 259 260 258 253 251 260 263 253 247 248 259 268 262 258 258 253 247 242 243 253 257 253 251 248 248 249 243 237 235 235
92 111 134 190 243 198 222 288 328 11 69 264 321 312 283 279 282 273 266 259 261 264 261 262 262 262 266 268 271 273 274 273 270 266 262 257 254 251 248 244 242 242 242 244 244 245 245 244 245 246 247 249 248 249 251 252 251 249 249 251 253 253 254 254 252 250 250 251 251 249 245 245 253 258 255 254 253 257 266 265 261 260 255 250 243 244 254 255 249 250 252 252 252 247 239 234 233
70 143 145 169 196 177 193 286 330 1 26 33 15 321 294 306 313 284 281 286 274 268 267 266 261 259 264 267 270 272 275 275 269 261 252 244 241 240 240 238 237 237 237 238 239 240 242 243 244 245 246 249 250 251 252 252 250 248 247 246 247 248 249 250 250 250 249 247 247 245 243 241 245 248 250 256 256 254 261 264 261 261 256 251 247 247 252 253 248 247 254 261 258 252 245 239 234
265 218 177 173 173 162 146 33 53 35 356 357 27 334 287 316 311 272 301 342 305 293 285 273 269 266 265 267 269 268 269 270 262 245 219 216 224 228 232 232 231 232 231 231 232 234 237 238 240 242 244 246 249 251 251 252 251 250 249 246 245 246 248 249 251 254 254 254 255 255 252 246 243 245 248 253 253 254 261 260 259 264 261 254 251 250 249 250 247 245 255 270 268 259 249 242 238
215 238 176 148 132 129 127 108 86 86 265 327 49 144 265 311 292 265 310 335 306 304 294 278 279 282 281 279 279 273 266 261 253 245 224 213 216 220 225 227 227 227 225 224 224 226 229 232 234 236 240 242 245 248 248 250 252 252 252 251 252 252 253 257 260 263 264 265 265 263 262 257 249 247 249 254 256 258 262 257 255 264 264 258 256 254 253 254 253 254 262 272 273 263 251 243 244
212 232 134 126 122 133 141 109 95 194 238 329 18 115 249 298 267 267 330 331 308 304 292 285 285 289 294 289 282 274 268 262 249 237 222 211 212 215 218 219 219 216 215 215 216 218 221 223 226 227 232 236 239 242 245 248 250 253 255 255 256 256 258 263 266 268 268 269 268 266 265 263 255 248 248 253 257 259 263 262 260 264 263 260 259 260 259 258 259 264 267 268 269 261 251 247 248
236 200 119 124 125 126 118 96 92 29 0 310 319 90 204 272 272 304 349 314 292 285 274 280 289 297 307 297 278 261 253 252 237 216 204 203 204 207 209 209 210 207 207 208 207 209 212 213 216 220 225 231 235 239 242 245 248 251 252 253 255 257 260 264 265 267 267 267 267 266 265 264 261 257 253 252 252 254 258 260 259 260 259 256 256 257 256 255 259 266 266 264 266 261 253 251 251
170 145 98 81 76 79 80 88 100 51 19 251 263 288 195 264 280 298 332 257 254 263 266 271 289 313 333 324 290 242 224 216 202 188 186 195 196 198 200 200 201 199 200 201 200 202 206 209 213 218 223 228 233 237 240 242 245 247 248 250 253 256 259 262 263 265 265 266 267 266 266 265 263 262 261 259 255 252 254 255 256 259 260 259 259 258 257 257 263 267 263 261 264 261 255 255 255
139 119 77 64 38 36 49 55 83 64 307 253 254 286 189 265 277 255 219 224 216 237 285 289 302 336 359 3 16 169 174 167 169 172 176 185 186 188 191 191 192 194 195 196 196 200 205 211 215 219 224 228 232 235 238 240 242 244 247 249 253 256 259 261 262 264 265 266 267 269 269 269 267 265 263 262 259 256 255 254 256 258 259 261 263 262 261 263 266 268 265 263 263 261 257 259 259
116 94 92 85 8 12 24 1 43 98 255 261 268 292 172 226 261 252 242 256 231 218 256 274 297 330 1 25 48 100 137 146 153 159 165 169 167 167 172 178 183 186 188 189 190 196 202 209 215 218 223 228 233 236 238 241 242 245 248 250 254 257 259 260 262 264 267 268 270 272 272 270 269 268 266 264 261 259 257 256 256 256 256 258 261 262 262 262 263 262 261 261 263 264 261 259 259
75 100 109 95 11 16 2 310 338 216 242 271 281 238 214 235 251 260 267 270 252 225 239 249 275 304 335 10 40 89 118 131 141 149 157 155 150 150 152 159 170 174 176 180 183 191 198 204 208 211 215 220 226 232 238 242 246 250 253 256 259 260 260 262 264 266 268 270 271 272 271 271 270 269 269 267 266 265 263 261 260 258 257 256 257 260 262 263 263 259 256 258 261 267 266 259 256
127 135 132 130 122 101 247 260 286 260 257 295 286 247 262 273 266 249 251 260 268 272 266 263 271 291 312 329 357 91 115 126 135 147 156 154 149 155 160 158 162 168 172 178 185 191 196 201 203 203 208 211 210 213 223 234 245 252 257 260 261 262 263 265 267 268 269 269 270 270 270 271 272 272 272 272 272 269 266 263 261 260 259 256 255 258 260 262 264 263 261 262 263 266 267 261 258
174 163 132 146 155 154 203 213 203 237 275 308 296 255 203 225 274 238 239 262 279 276 267 264 267 278 296 305 306 135 135 135 143 157 160 160 159 164 169 169 169 173 177 182 186 191 195 201 204 206 209 210 207 210 218 229 241 250 257 263 268 270 272 273 272 273 274 273 273 273 273 273 273 274 274 274 274 271 268 265 262 259 258 258 255 254 257 259 260 262 263 264 265 265 264 261 259
247 116 105 161 185 140 136 177 173 169 339 313 265 237 216 215 275 274 263 274 282 273 261 259 260 266 280 288 292 261 189 160 160 172 169 171 172 173 175 177 180 180 180 182 184 189 195 197 199 201 203 203 201 202 203 205 221 247 265 274 280 281 281 280 279 280 281 281 281 280 280 280 279 278 277 277 276 274 272 269 265 263 259 258 257 255 256 257 258 260 260 261 262 262 262 261 260
168 121 172 213 169 112 113 193 71 81 227 271 226 251 289 321 289 293 298 280 288 294 276 261 256 258 265 270 281 275 222 181 171 178 180 185 186 184 182 181 182 178 174 174 169 166 161 155 153 151 150 152 150 148 142 128 124 278 288 285 285 286 285 284 283 282 282 281 280 281 282 284 284 285 285 283 282 280 278 275 271 268 264 261 259 258 258 259 259 259 258 257 258 258 260 261 261
124 174 207 193 119 94 110 165 11 44 240 275 282 246 288 320 273 317 355 262 274 287 283 281 266 250 249 259 269 268 241 215 202 191 191 198 196 191 187 182 179 169 161 155 145 138 131 124 121 119 117 117 117 117 107 73 0 311 299 295 293 291 288 285 284 282 282 280 279 281 282 283 285 287 287 286 286 286 284 283 280 277 275 270 267 265 263 263 263 261 258 256 255 255 257 259 260
119 176 168 118 139 164 89 140 166 120 233 276 299 278 263 210 231 302 312 221 236 261 274 298 280 249 246 261 267 258 248 223 205 196 199 205 201 194 186 180 173 162 153 144 132 124 120 112 107 114 117 116 148 215 275 291 293 294 297 299 298 295 291 287 286 286 285 284 283 283 280 279 281 283 285 285 286 287 286 287 287 286 285 283 280 278 276 275 274 268 261 257 255 254 255 256 258
56 106 107 80 128 163 157 153 163 166 193 247 309 324 266 226 213 219 235 227 219 243 264 281 278 270 271 282 271 172 257 197 186 192 203 205 198 191 183 177 171 161 151 139 126 119 119 112 108 148 202 231 221 230 243 255 268 274 280 287 290 291 289 288 289 289 288 288 288 287 283 281 281 280 281 283 283 285 286 286 287 287 287 287 287 288 287 285 283 276 266 259 256 256 257 257 258
99 123 159 180 71 110 161 130 117 139 157 189 270 296 266 249 206 194 223 232 215 222 239 262 277 301 350 323 303 295 262 188 184 194 202 200 191 185 181 177 173 166 156 144 131 126 136 219 260 235 237 237 226 228 239 245 253 260 267 273 276 279 282 284 287 286 285 286 287 290 290 287 284 280 280 281 280 281 283 284 285 285 285 286 287 288 290 289 286 280 270 261 256 254 256 258 260
160 171 184 181 155 124 154 242 245 115 140 166 176 264 267 249 204 200 218 225 219 226 238 268 282 297 316 320 305 276 228 189 191 193 189 187 181 178 178 173 168 167 168 172 196 238 249 251 250 244 243 243 238 241 248 253 256 261 265 269 272 278 282 284 285 285 284 285 287 289 290 287 285 284 282 280 279 279 280 281 283 283 285 285 285 286 288 290 289 283 274 265 259 255 254 255 258